Regional Weather Roundup
Issued by NWS

Home | Current Version | Previous Version | Text Only | Print | Product List | Glossary On
Versions: 1 2 3 4 5 6 7 8 9 10 11 12 13 14 15 16 17 18 19 20 21 22 23 24 25 26 27 28 29 30 31 32 33 34 35 36 37 38 39 40 41 42 43 44 45 46 47 48 49 50
000
ASUS43 KMKX 110110
RWRWI

WISCONSIN REGIONAL WEATHER ROUNDUP
NATIONAL WEATHER SERVICE MILWAUKEE/SULLIVAN WI
700 PM CST SUN DEC 10 2017

NOTE: "FAIR" INDICATES FEW OR NO CLOUDS BELOW 12,000 FEET WITH NO
SIGNIFICANT WEATHER AND/OR OBSTRUCTIONS TO VISIBILITY.

WIZ001-002-006>008-014>016-023>028-110200-
NORTHWEST WISCONSIN

CITY           SKY/WX    TMP DP  RH WIND       PRES   REMARKS
SUPERIOR ARPT  CLOUDY    11   9  92 CALM      30.05F
ASHLAND        CLOUDY     9   5  84 S5        30.04F WCI   1
HAYWARD        CLOUDY    15  12  88 CALM      30.02F
SIREN          CLOUDY    15  13  90 CALM      30.03F
CUMBERLAND     CLEAR     14  14 100 CALM      30.01F
RICE LAKE      CLEAR     14  13  93 CALM      30.04S
CHETEK           N/A     14  13  95 CALM      30.04S
LADYSMITH      CLOUDY    19  13  79 N3        30.03F
EAU CLAIRE     CLOUDY    19  16  88 CALM      30.04F
MENOMONIE      MOCLDY    24  19  82 CALM      30.05S
NEW RICHMOND   CLEAR     20  17  88 CALM      30.04S
OSCEOLA        CLOUDY    17  17  98 CALM      30.07S
$$

WIZ003>005-009-010-017-018-110200-
NORTH CENTRAL WISCONSIN

CITY           SKY/WX    TMP DP  RH WIND       PRES   REMARKS
MANITOWISH WTR FLURRIES  15  13  91 NW5       29.97S WCI   8
ARBOR VITAE    FLURRIES  18  13  81 NW5       29.98S WCI  11
WOODRUFF       FLURRIES  18  13  81 NW5       29.98S WCI  11
RHINELANDER    CLOUDY    18  14  84 CALM      29.98S
EAGLE RIVER    FLURRIES  17  11  79 NW3       29.96S
LAND O LAKES   LGT SNOW  16  13  88 CALM      29.98S
PHILLIPS       CLOUDY    17  12  82 CALM      30.00S
TOMAHAWK       LGT SNOW  18  12  79 NW3       30.01R
MEDFORD        CLOUDY    19  13  74 N6        30.00S WCI  11
MERRILL        FLURRIES  20  14  75 N6        30.01S WCI  13
$$

WIZ029-030-035-036-043>047-110200-
CENTRAL WISCONSIN

CITY           SKY/WX    TMP DP  RH WIND       PRES   REMARKS
WAUSAU         CLOUDY    21  12  68 N10       30.01R WCI  10
MOSINEE        CLOUDY    21  16  79 N8        30.02R WCI  12
MARSHFIELD     CLOUDY    22  15  75 NW8       30.01S WCI  12
STEVENS POINT  CLOUDY    22  15  75 NW5       30.03R WCI  16
WAUPACA        CLOUDY    28  18  66 NW5       30.03S WCI  22
WAUTOMA        CLOUDY    25  17  72 NW6       30.05R WCI  18
WISC RAPIDS    CLOUDY    24  15  68 NW6       30.05R WCI  17
CAMP DOUGLAS   CLOUDY    25  17  72 NW3       30.05S
$$

WIZ011>013-019>022-031-037>040-048>050-110200-
NORTHEAST WISCONSIN

CITY           SKY/WX    TMP DP  RH WIND       PRES   REMARKS
ANTIGO         FLURRIES  19  14  81 NW7       29.98S WCI  10
SHAWANO        CLOUDY    26  15  64 N10       30.03R WCI  16
OCONTO         CLOUDY    23  11  60 N10       30.05R WCI  12
STURGEON BAY   CLOUDY    23  13  65 NW16      30.03R WCI  10
GREEN BAY      CLOUDY    25  17  72 NW7       30.04R WCI  17
MANITOWOC      CLOUDY    25  18  74 NW8       30.04R WCI  16
APPLETON       CLOUDY    25  16  68 NW6       30.01R WCI  18
CLINTONVILLE   CLOUDY    25  16  68 N5        30.03R WCI  19
OSHKOSH        CLOUDY    26  19  74 NW7       30.03R WCI  18
$$

WIZ032>034-041-042-053>061-110200-
SOUTHWEST WISCONSIN

CITY           SKY/WX    TMP DP  RH WIND       PRES   REMARKS
LA CROSSE      CLOUDY    27  19  72 N6        30.07F WCI  20
SPARTA         CLOUDY    25  20  80 CALM      30.07S
VIROQUA        CLOUDY    25  21  85 NW7       30.04S WCI  17
BOSCOBEL       CLOUDY    29  20  69 N3        30.09R
PRAIRIE DU CHI CLOUDY    25  19  77 CALM      30.09R
PLATTEVILLE    MOCLDY    27  23  84 NW7       30.06S WCI  19
$$

WIZ056-057-062-063-064-067-068-110200-
SOUTH CENTRAL WISCONSIN

CITY           SKY/WX    TMP DP  RH WIND       PRES   REMARKS
REEDSBURG      CLOUDY    26  18  71 NW8       30.06S WCI  17
BARABOO/DELLS  CLOUDY    26  18  69 NW7       30.05S WCI  19
LONE ROCK      CLOUDY    28  21  75 NW6       30.08R WCI  22
MINERAL POINT  CLOUDY    28  23  80 NW7       30.05R WCI  21
MADISON        CLOUDY    27  18  69 NW9       30.05R WCI  18
MIDDLETON      CLOUDY    29  20  69 NW9       30.06R WCI  21
WATERTOWN      CLOUDY    26  20  76 NW7       30.04R WCI  19
MONROE         CLOUDY    28  19  69 NW7       30.05R WCI  21
JANESVILLE     CLOUDY    30  19  64 NW13      30.05R WCI  20
$$

WIZ051-052-058>065-066-070>072-110200-
SOUTHEAST WISCONSIN

CITY           SKY/WX    TMP DP  RH WIND       PRES   REMARKS
MILWAUKEE      CLOUDY    28  19  69 NW9       30.04R WCI  19
WAUKESHA       CLOUDY    25  18  74 NW7       30.05R WCI  17
MILWAUKEE/TIMM CLOUDY    27  18  69 NW7       30.05R WCI  19
RACINE         CLOUDY    27  19  72 NW7       30.06R WCI  19
BURLINGTON     CLOUDY    35  31  86 NW6       30.05R WCI  30
KENOSHA        CLOUDY    28  19  69 NW6       30.05R WCI  22
FOND DU LAC    CLOUDY    26  17  68 NW8       30.04R WCI  18
SHEBOYGAN      CLOUDY    25  19  78 NW3       30.03R
WEST BEND      CLOUDY    27  21  80 W6        30.03R WCI  20
JUNEAU         CLOUDY    25  17  70 NW7       30.05R WCI  17
$$

LSZ147-162-110200-
LAKE SUPERIOR

STATION/POSITION TIME  TEMP    WIND        PRES    WAVE
                       AIR SEA DIR/SP/G            HT/PER
                 (UTC) (F)     (DEG/KT/KT) (MB)    (FT/S)
DEVILS ISLAND    0000   22     320/  7/ 10 1018.6S
SAXON HARBOR     0030   19                 1016.9F
$$

LMZ867-665-643>646-110200-
LAKE MICHIGAN

STATION/POSITION TIME  TEMP    WIND        PRES    WAVE
                       AIR SEA DIR/SP/G            HT/PER
                 (UTC) (F)     (DEG/KT/KT) (MB)    (FT/S)
NORTHPORT PIER   0040   22     320/ 21/ 27 1016.9R
KEWAUNEE LAKESHO 0048   23     330/  7/ 10 1016.2R
SHEBOYGAN LAKESH 0100   26     300/  9/ 11 1018.0R
PORT WASHINGTON  0040   27     290/  3/  6 1018.3R
MILWAUKEE LAKESH 0050   28     340/  9/ 11   N/A
KENOSHA   LAKESH 0000   28     320/  7/ 12 1017.3
$$

TC  - TEMPERATURE IN CELSIUS
VSB - VISIBILITY IN STATUTE MILES
WCI - WIND CHILL INDEX
HX  - HEAT INDEX




USA.gov is the U.S. government's official web portal to all federal, state and local government web resources and services.